Погода в Тюлькином

Россия / Пермский край     59°50′22″N   56°31′27″E
темп.,
°C
ветер,
м/с
пор.,
м/с
влажн.,
%
обл.,
%
осадки,
мм/ч
давл.,
гПа
погр.,
м
21 января, пт
пт2123:00−7ююз51394100 0.7 1012810
02:00−7ююз51394100 0.9 1012840
05:00−7ююз51294100 1.6 1013731
08:00−8ююз4119499 0.3 1013520
11:00−7ююз4119498 0.7 1015592
14:00−5ююз4992100 0.3 1016649
17:00−7ююз499299 0.3 1018458
20:00−9ю499496 0.0 1020344
22 января, сб
сб2223:00−11ю399490 0.0 1022236
02:00−16ю279885 0.0 1024111
05:00−19ююв2510087 0.0 102665
08:00−20ююв24100100 0.0 102653
11:00−18ююв25100100 0.1 102890
14:00−12ююв249593 0.0 1028165
17:00−16юв1110073 0.1 10299
20:00−19юв2110095 0.0 103013
23 января, вс
вс2323:00−20юв1110095 0.0 103211
02:00−20вюв1110098 0.0 103210
05:00−21вюв11100100 0.1 103314
08:00−20вюв11100100 0.0 103419
11:00−14юв2596100 0.0 1034105
14:00−9юв2590100 0.0 1034188
17:00−8ююв3793100 0.0 1035234
20:00−8ююв2893100 0.0 1036236
24 января, пн
пн2423:00−9ю2894100 0.0 1036215
02:00−8ю2793100 0.0 1036222
05:00−8ю2796100 0.6 1036290
08:00−8ю2796100 0.7 1036295
11:00−7ююз269695 1.4 1036256
14:00−6зюз2493100 0.2 1036375
17:00−10ююз119883 0.3 103610
20:00−15юз1110099 0.1 103616
25 января, вт
вт2523:00−14ююз249896 0.1 103574
02:00−14ююз2698100 0.1 1033117
05:00−12ююз2796100 0.2 1032217
08:00−11ююз3895100 0.1 1030286
11:00−9ююз3994100 0.1 1028376
14:00−7юз3990100 0.0 1027497
17:00−7юз4990100 0.0 1026416
20:00−9ююз4109298 0.0 1026328